contact:dominique.lefevre@mio.osupytheas.fr, maurice.libes@osupytheas.fr, didier.mallarino@osupytheas.fr
Project:EMSO http://www.emso-fr.org/EMSO-France
Depth: 2436.0 m
Title:EMSO Ligure Ouest : Data MII capteur AQUADOPP
Date,Latitude,Longitude,X_East,Y_North,Z_Up,Amplitude_X,Amplitude_Y,Amplitude_Z,Batterie,SoundSpeed,Heading,Pitch,Roll,Pressure,TIS,Speed,Direction
, degrees North, degrees East, m.s-1, m.s-1,m.s-1, 1, 1, 1, Volt, m.s-1, degree, degree, degree, dbar, degree_C, m.s-1, degree
2019-06-03T00:00:00,42.805,6.029,-0.038,0.035,-0.021,99.0,105.0,98.0,13.3,1505.3,325.6,-0.7,1.9,2470.078,13.33,0.051,312.6
2019-06-03T00:09:04,42.805,6.029,-0.033,0.016,-0.054,100.0,105.0,97.0,13.4,1505.2,326.0,-0.8,1.8,2470.137,13.29,0.036,295.9
2019-06-03T00:12:05,42.805,6.029,-0.029,0.032,-0.034,101.0,105.0,95.0,13.4,1505.3,326.4,-0.7,1.9,2470.119,13.31,0.043,317.8
2019-06-03T00:15:06,42.805,6.029,-0.047,0.025,-0.044,100.0,106.0,98.0,13.4,1505.3,325.3,-0.8,1.9,2470.066,13.31,0.053,298.0
2019-06-03T00:18:07,42.805,6.029,-0.041,0.037,-0.046,99.0,106.0,97.0,13.3,1505.3,324.1,-0.8,1.9,2470.077,13.32,0.055,312.1
2019-06-03T00:21:08,42.805,6.029,-0.013,0.051,0.034,101.0,106.0,96.0,13.4,1505.3,324.7,-0.7,1.9,2470.096,13.32,0.052,345.7
2019-06-03T00:24:09,42.805,6.029,-0.053,0.042,-0.024,99.0,106.0,97.0,13.4,1505.3,322.9,-0.7,1.8,2470.09,13.32,0.067,308.4
2019-06-03T00:27:10,42.805,6.029,-0.047,0.051,-0.04,99.0,106.0,96.0,13.3,1505.3,327.5,-0.7,1.8,2470.069,13.33,0.069,317.3
2019-06-03T00:30:11,42.805,6.029,-0.047,0.042,-0.052,99.0,106.0,96.0,13.3,1505.3,324.5,-0.7,1.8,2470.051,13.33,0.063,311.8
2019-06-03T00:33:12,42.805,6.029,-0.014,0.029,-0.029,100.0,106.0,96.0,13.3,1505.3,326.6,-0.8,1.8,2470.069,13.33,0.032,334.2
2019-06-03T00:36:13,42.805,6.029,-0.023,0.031,-0.015,99.0,107.0,96.0,13.4,1505.3,325.1,-0.8,1.9,2470.085,13.33,0.038,323.4
2019-06-03T00:39:14,42.805,6.029,-0.032,0.034,-0.036,98.0,108.0,97.0,13.4,1505.3,325.4,-0.8,1.8,2470.096,13.33,0.046,316.7
2019-06-03T00:42:15,42.805,6.029,-0.048,0.036,-0.023,100.0,106.0,97.0,13.3,1505.3,326.0,-0.8,1.9,2470.065,13.33,0.06,306.9
2019-06-03T00:45:16,42.805,6.029,-0.015,0.028,-0.036,100.0,105.0,96.0,13.3,1505.3,328.2,-0.7,1.8,2470.088,13.33,0.031,331.8
2019-06-03T00:48:17,42.805,6.029,-0.024,0.04,-0.014,98.0,105.0,97.0,13.3,1505.3,325.2,-0.7,1.8,2470.045,13.33,0.046,329.0
2019-06-03T00:51:18,42.805,6.029,-0.046,0.035,-0.02,98.0,108.0,96.0,13.3,1505.3,324.5,-0.7,1.9,2470.074,13.33,0.057,307.3
2019-06-03T00:54:19,42.805,6.029,-0.021,0.041,-0.021,100.0,105.0,98.0,13.4,1505.3,326.9,-0.7,1.9,2470.057,13.33,0.046,332.9
2019-06-03T00:57:20,42.805,6.029,-0.026,0.052,-0.023,99.0,106.0,97.0,13.3,1505.3,325.9,-0.7,1.9,2470.036,13.33,0.058,333.4
2019-06-03T01:00:21,42.805,6.029,-0.036,0.01,-0.04,99.0,104.0,98.0,13.4,1505.3,323.1,-0.8,1.9,2470.014,13.33,0.037,285.5
2019-06-03T01:03:22,42.805,6.029,-0.047,0.02,-0.033,99.0,105.0,99.0,13.4,1505.3,324.5,-0.7,1.8,2470.047,13.33,0.051,293.0
2019-06-03T01:06:23,42.805,6.029,-0.02,0.024,0.005,100.0,105.0,97.0,13.4,1505.3,325.8,-0.8,1.9,2470.039,13.33,0.031,320.2
2019-06-03T01:09:24,42.805,6.029,-0.053,0.034,-0.034,100.0,105.0,97.0,13.4,1505.3,324.8,-0.8,1.8,2470.053,13.33,0.062,302.7
2019-06-03T01:12:25,42.805,6.029,-0.015,0.033,-0.02,99.0,106.0,98.0,13.4,1505.3,325.9,-0.7,1.9,2470.058,13.33,0.036,335.6
2019-06-03T01:15:26,42.805,6.029,-0.016,0.028,-0.015,100.0,105.0,96.0,13.4,1505.3,326.8,-0.8,1.8,2470.041,13.33,0.032,330.3
2019-06-03T01:18:27,42.805,6.029,-0.047,0.04,-0.034,100.0,105.0,96.0,13.4,1505.3,326.1,-0.8,1.8,2470.045,13.33,0.061,310.4
2019-06-03T01:21:28,42.805,6.029,-0.005,0.041,-0.018,100.0,104.0,97.0,13.4,1505.3,322.8,-0.7,1.8,2470.042,13.33,0.041,353.0
2019-06-03T01:24:29,42.805,6.029,-0.037,0.041,-0.012,101.0,104.0,95.0,13.3,1505.3,325.9,-0.7,1.8,2470.064,13.33,0.055,317.9
2019-06-03T01:27:30,42.805,6.029,-0.048,0.045,-0.021,99.0,106.0,97.0,13.4,1505.3,327.5,-0.7,1.9,2470.08,13.33,0.065,313.1
2019-06-03T01:30:31,42.805,6.029,-0.022,0.022,-0.016,99.0,105.0,98.0,13.3,1505.3,325.1,-0.7,1.9,2469.982,13.33,0.031,315.0
2019-06-03T01:33:32,42.805,6.029,-0.048,0.036,-0.027,99.0,106.0,97.0,13.3,1505.3,328.2,-0.7,1.9,2470.065,13.33,0.06,306.9
2019-06-03T01:36:33,42.805,6.029,-0.013,0.037,0.011,99.0,106.0,96.0,13.4,1505.3,326.5,-0.8,1.8,2470.07,13.33,0.039,340.6
2019-06-03T01:39:34,42.805,6.029,-0.023,0.038,-0.035,101.0,106.0,95.0,13.3,1505.3,328.3,-0.8,1.8,2469.992,13.33,0.044,328.8
2019-06-03T01:42:35,42.805,6.029,-0.033,0.046,-0.013,98.0,107.0,99.0,13.3,1505.3,325.2,-0.7,1.8,2470.034,13.33,0.056,324.3
2019-06-03T01:45:36,42.805,6.029,-0.03,0.026,-0.023,102.0,107.0,97.0,13.4,1505.3,325.4,-0.7,1.8,2470.035,13.33,0.039,310.9
2019-06-03T01:48:37,42.805,6.029,-0.039,0.032,-0.025,99.0,106.0,97.0,13.4,1505.3,324.0,-0.7,1.8,2470.042,13.33,0.05,309.4
2019-06-03T01:51:38,42.805,6.029,-0.047,0.039,-0.03,101.0,105.0,96.0,13.3,1505.3,323.7,-0.7,1.9,2470.049,13.33,0.061,309.7
2019-06-03T01:54:39,42.805,6.029,-0.011,0.021,-0.011,99.0,106.0,97.0,13.4,1505.3,324.4,-0.8,1.9,2470.048,13.33,0.023,332.4
2019-06-03T01:57:40,42.805,6.029,-0.025,0.043,-0.028,99.0,104.0,97.0,13.4,1505.3,328.6,-0.7,1.9,2470.006,13.33,0.049,329.8
2019-06-03T02:00:41,42.805,6.029,-0.023,0.017,-0.037,100.0,105.0,98.0,13.3,1505.3,325.2,-0.8,1.9,2470.053,13.33,0.028,306.5
2019-06-03T02:03:42,42.805,6.029,-0.042,0.06,0.011,101.0,106.0,97.0,13.4,1505.3,326.4,-0.8,1.8,2470.013,13.33,0.073,325.0
2019-06-03T02:06:43,42.805,6.029,-0.049,0.031,-0.014,99.0,108.0,96.0,13.4,1505.3,324.0,-0.8,1.8,2470.059,13.33,0.057,302.3
2019-06-03T02:09:44,42.805,6.029,-0.04,0.025,-0.043,99.0,107.0,96.0,13.4,1505.3,327.4,-0.8,1.8,2470.067,13.33,0.047,302.0
2019-06-03T02:12:45,42.805,6.029,-0.011,0.027,0.0,99.0,106.0,99.0,13.4,1505.3,325.8,-0.8,1.8,2470.07,13.33,0.029,337.8
2019-06-03T02:15:46,42.805,6.029,-0.029,0.025,-0.024,100.0,105.0,97.0,13.4,1505.3,325.7,-0.7,1.9,2470.008,13.33,0.038,310.8
2019-06-03T02:18:47,42.805,6.029,-0.037,0.036,0.0,99.0,106.0,97.0,13.3,1505.3,323.6,-0.7,1.9,2470.025,13.33,0.051,314.2
2019-06-03T02:21:48,42.805,6.029,-0.037,0.019,-0.028,99.0,105.0,98.0,13.4,1505.3,324.9,-0.7,1.9,2470.033,13.33,0.041,297.2
2019-06-03T02:24:49,42.805,6.029,-0.037,0.025,-0.034,99.0,105.0,98.0,13.4,1505.3,323.2,-0.8,1.8,2470.011,13.33,0.044,304.0
2019-06-03T02:27:50,42.805,6.029,-0.008,0.043,-0.027,101.0,105.0,96.0,13.4,1505.3,324.8,-0.7,1.9,2470.038,13.33,0.043,349.5
2019-06-03T02:30:51,42.805,6.029,-0.01,0.028,0.021,101.0,106.0,96.0,13.4,1505.3,325.4,-0.7,1.8,2469.986,13.33,0.029,340.4
2019-06-03T02:33:52,42.805,6.029,-0.013,0.034,-0.003,97.0,108.0,97.0,13.4,1505.3,326.7,-0.7,1.8,2470.047,13.33,0.036,339.1
2019-06-03T02:36:53,42.805,6.029,-0.026,0.057,-0.001,99.0,106.0,95.0,13.4,1505.3,328.2,-0.7,1.8,2470.027,13.33,0.062,335.5
2019-06-03T02:39:54,42.805,6.029,-0.049,0.043,-0.025,98.0,107.0,98.0,13.4,1505.3,326.3,-0.8,1.8,2470.037,13.33,0.065,311.3
2019-06-03T02:42:55,42.805,6.029,-0.045,0.034,-0.025,101.0,106.0,96.0,13.4,1505.3,326.1,-0.8,1.9,2470.032,13.33,0.056,307.1
2019-06-03T02:45:56,42.805,6.029,-0.029,0.055,-0.003,98.0,108.0,97.0,13.4,1505.3,326.6,-0.7,1.8,2470.049,13.33,0.062,332.2
2019-06-03T02:48:57,42.805,6.029,-0.052,0.026,-0.019,101.0,105.0,98.0,13.4,1505.3,327.5,-0.7,1.8,2470.057,13.33,0.058,296.6
2019-06-03T02:51:58,42.805,6.029,-0.06,0.028,-0.038,100.0,109.0,96.0,13.4,1505.3,325.9,-0.7,1.9,2470.02,13.33,0.066,295.0
2019-06-03T02:54:59,42.805,6.029,-0.024,0.025,-0.039,101.0,105.0,97.0,13.4,1505.3,326.4,-0.7,1.8,2470.055,13.33,0.034,316.2
2019-06-03T02:58:00,42.805,6.029,-0.009,0.023,-0.001,100.0,106.0,97.0,13.4,1505.3,325.0,-0.8,1.8,2470.02,13.33,0.024,338.6
2019-06-03T03:01:01,42.805,6.029,-0.036,0.03,-0.027,99.0,106.0,97.0,13.4,1505.3,322.7,-0.8,1.8,2469.994,13.33,0.046,309.8
2019-06-03T03:04:02,42.805,6.029,-0.02,0.033,-0.002,100.0,105.0,96.0,13.3,1505.3,324.5,-0.7,1.9,2470.066,13.33,0.038,328.8
2019-06-03T03:07:03,42.805,6.029,-0.022,0.033,0.009,101.0,105.0,98.0,13.4,1505.3,323.6,-0.8,1.9,2470.051,13.33,0.039,326.3
2019-06-03T03:10:04,42.805,6.029,-0.012,0.029,-0.03,100.0,106.0,97.0,13.4,1505.3,327.6,-0.8,1.9,2470.035,13.33,0.031,337.5
2019-06-03T03:13:05,42.805,6.029,-0.02,0.034,0.005,99.0,106.0,97.0,13.4,1505.3,326.2,-0.7,1.9,2470.081,13.33,0.039,329.5
2019-06-03T03:16:06,42.805,6.029,-0.016,0.051,-0.009,99.0,105.0,97.0,13.4,1505.3,328.0,-0.8,1.8,2470.059,13.33,0.053,342.6
2019-06-03T03:19:07,42.805,6.029,-0.039,0.032,0.001,99.0,105.0,96.0,13.4,1505.3,324.7,-0.7,1.9,2470.054,13.33,0.05,309.4
2019-06-03T03:22:08,42.805,6.029,0.0,0.023,-0.032,99.0,106.0,97.0,13.4,1505.3,327.8,-0.8,1.9,2470.109,13.33,0.023,0.0
2019-06-03T03:25:09,42.805,6.029,-0.024,0.029,0.002,101.0,105.0,96.0,13.3,1505.3,324.8,-0.8,1.8,2470.013,13.33,0.037,320.4
2019-06-03T03:28:10,42.805,6.029,-0.01,0.023,-0.02,100.0,105.0,97.0,13.3,1505.3,327.7,-0.8,1.8,2470.028,13.33,0.025,336.5
2019-06-03T03:31:11,42.805,6.029,-0.029,0.021,-0.056,101.0,107.0,96.0,13.3,1505.3,325.6,-0.8,1.9,2470.052,13.33,0.035,305.9
2019-06-03T03:34:12,42.805,6.029,-0.011,0.045,0.0,100.0,106.0,97.0,13.4,1505.3,327.7,-0.8,1.9,2470.065,13.33,0.046,346.3
2019-06-03T03:37:13,42.805,6.029,-0.011,0.041,-0.009,100.0,106.0,98.0,13.3,1505.3,326.1,-0.8,1.9,2470.097,13.33,0.042,345.0
2019-06-03T03:40:14,42.805,6.029,-0.02,0.021,-0.042,98.0,106.0,98.0,13.3,1505.3,324.8,-0.8,1.9,2470.071,13.33,0.028,316.4
2019-06-03T03:43:15,42.805,6.029,0.008,0.03,-0.027,100.0,107.0,97.0,13.4,1505.3,324.1,-0.7,1.9,2470.043,13.33,0.031,14.9
2019-06-03T03:46:16,42.805,6.029,-0.017,0.055,0.015,99.0,106.0,96.0,13.4,1505.3,325.5,-0.8,1.9,2470.109,13.33,0.057,342.8
2019-06-03T03:49:17,42.805,6.029,-0.021,0.019,-0.016,100.0,104.0,99.0,13.4,1505.3,323.0,-0.8,1.8,2470.081,13.33,0.028,312.1
2019-06-03T03:52:18,42.805,6.029,-0.026,0.037,0.01,99.0,106.0,97.0,13.4,1505.3,324.7,-0.7,1.9,2470.045,13.33,0.045,324.9
2019-06-03T03:55:19,42.805,6.029,-0.028,0.033,-0.015,98.0,107.0,97.0,13.3,1505.3,323.2,-0.7,1.8,2470.065,13.33,0.043,319.7
2019-06-03T03:58:20,42.805,6.029,0.001,0.044,-0.02,98.0,108.0,96.0,13.3,1505.3,324.9,-0.8,1.8,2470.093,13.33,0.044,1.3
2019-06-03T04:01:21,42.805,6.029,0.007,0.027,-0.025,99.0,105.0,96.0,13.4,1505.3,323.5,-0.7,1.9,2470.12,13.33,0.027,14.5
2019-06-03T04:04:22,42.805,6.029,-0.023,0.028,-0.01,100.0,106.0,96.0,13.4,1505.3,324.1,-0.7,1.8,2470.117,13.33,0.036,320.6
2019-06-03T04:07:23,42.805,6.029,-0.028,0.029,-0.035,99.0,105.0,97.0,13.4,1505.3,323.9,-0.7,1.8,2470.08,13.33,0.04,316.0
2019-06-03T04:10:24,42.805,6.029,-0.02,0.039,-0.046,101.0,106.0,97.0,13.4,1505.3,324.6,-0.7,1.9,2470.074,13.33,0.043,332.9
2019-06-03T04:13:25,42.805,6.029,-0.031,0.037,-0.047,99.0,107.0,96.0,13.4,1505.3,322.7,-0.8,1.9,2470.123,13.33,0.048,320.0
2019-06-03T04:16:26,42.805,6.029,-0.051,0.035,-0.022,100.0,106.0,96.0,13.4,1505.3,325.4,-0.7,1.9,2470.101,13.33,0.061,304.5
2019-06-03T04:19:27,42.805,6.029,-0.023,0.034,-0.03,99.0,105.0,98.0,13.4,1505.3,324.9,-0.8,1.8,2470.096,13.33,0.041,325.9
2019-06-03T04:22:28,42.805,6.029,-0.016,0.03,0.009,102.0,104.0,96.0,13.3,1505.3,324.6,-0.7,1.8,2470.073,13.33,0.034,331.9
2019-06-03T04:25:29,42.805,6.029,-0.025,0.029,-0.023,98.0,108.0,96.0,13.3,1505.3,323.9,-0.8,1.8,2470.133,13.33,0.038,319.2
2019-06-03T04:28:30,42.805,6.029,-0.034,0.032,-0.013,98.0,106.0,96.0,13.4,1505.3,324.6,-0.7,1.8,2470.12,13.33,0.046,313.3
2019-06-03T04:31:31,42.805,6.029,-0.016,0.038,-0.039,98.0,106.0,95.0,13.4,1505.3,323.9,-0.7,1.8,2470.105,13.33,0.041,337.2
2019-06-03T04:34:32,42.805,6.029,-0.025,0.023,-0.053,98.0,107.0,97.0,13.4,1505.3,324.8,-0.7,1.9,2470.158,13.33,0.033,312.6
2019-06-03T04:37:33,42.805,6.029,-0.049,0.056,-0.002,101.0,106.0,96.0,13.4,1505.3,325.8,-0.7,1.8,2470.13,13.33,0.074,318.8
2019-06-03T04:40:34,42.805,6.029,-0.033,0.046,-0.028,99.0,104.0,96.0,13.4,1505.3,325.4,-0.7,1.9,2470.139,13.33,0.056,324.3
2019-06-03T04:43:35,42.805,6.029,-0.036,0.033,-0.02,100.0,105.0,96.0,13.4,1505.3,327.1,-0.8,1.8,2470.16,13.33,0.048,312.5
2019-06-03T04:46:36,42.805,6.029,-0.026,0.024,-0.036,100.0,107.0,96.0,13.3,1505.3,324.5,-0.8,1.8,2470.158,13.33,0.035,312.7
2019-06-03T04:49:37,42.805,6.029,-0.029,0.05,-0.036,99.0,107.0,96.0,13.4,1505.3,326.5,-0.7,1.8,2470.174,13.33,0.057,329.9
2019-06-03T04:52:38,42.805,6.029,-0.005,0.045,0.023,99.0,107.0,95.0,13.4,1505.3,325.6,-0.7,1.8,2470.165,13.33,0.045,353.7
2019-06-03T04:55:39,42.805,6.029,-0.044,0.029,-0.015,100.0,104.0,97.0,13.4,1505.3,326.9,-0.8,1.9,2470.14,13.33,0.052,303.4
2019-06-03T04:58:40,42.805,6.029,-0.026,0.029,-0.032,100.0,108.0,97.0,13.3,1505.3,324.9,-0.8,1.8,2470.167,13.33,0.038,318.1
2019-06-03T05:01:41,42.805,6.029,-0.021,0.021,0.004,99.0,105.0,98.0,13.4,1505.3,326.6,-0.7,1.8,2470.173,13.33,0.029,315.0
2019-06-03T05:04:42,42.805,6.029,-0.045,0.035,-0.03,99.0,104.0,96.0,13.3,1505.3,324.6,-0.8,1.9,2470.189,13.33,0.057,307.9
2019-06-03T05:07:43,42.805,6.029,0.008,0.037,-0.002,98.0,105.0,96.0,13.4,1505.3,325.3,-0.7,1.8,2470.146,13.33,0.037,12.2
2019-06-03T05:10:44,42.805,6.029,-0.001,0.03,-0.019,100.0,105.0,96.0,13.4,1505.3,326.6,-0.7,1.9,2470.168,13.33,0.03,358.1
2019-06-03T05:13:45,42.805,6.029,-0.011,0.05,0.001,98.0,105.0,95.0,13.3,1505.3,328.2,-0.8,1.8,2470.18,13.33,0.051,347.6
2019-06-03T05:16:46,42.805,6.029,-0.017,0.037,0.02,99.0,105.0,96.0,13.4,1505.3,325.5,-0.8,1.9,2470.13,13.33,0.04,335.3
2019-06-03T05:19:47,42.805,6.029,-0.021,0.035,-0.034,98.0,106.0,96.0,13.4,1505.3,325.9,-0.8,1.9,2470.184,13.33,0.04,329.0
2019-06-03T05:22:48,42.805,6.029,-0.033,0.021,-0.017,98.0,105.0,96.0,13.3,1505.3,323.5,-0.8,1.9,2470.162,13.33,0.039,302.5
2019-06-03T05:25:49,42.805,6.029,-0.036,0.043,-0.041,100.0,106.0,96.0,13.3,1505.3,323.9,-0.8,1.8,2470.177,13.33,0.056,320.1
2019-06-03T05:28:50,42.805,6.029,-0.009,0.026,-0.026,101.0,106.0,94.0,13.3,1505.3,323.6,-0.8,1.8,2470.142,13.33,0.027,340.9
2019-06-03T05:31:51,42.805,6.029,-0.02,0.052,-0.003,96.0,106.0,96.0,13.4,1505.3,324.3,-0.7,1.9,2470.183,13.33,0.055,339.0
2019-06-03T05:34:52,42.805,6.029,-0.034,0.034,-0.051,98.0,106.0,96.0,13.4,1505.3,327.5,-0.7,1.9,2470.192,13.33,0.048,315.0
2019-06-03T05:37:53,42.805,6.029,-0.013,0.035,-0.031,96.0,104.0,96.0,13.4,1505.3,325.8,-0.7,1.8,2470.184,13.33,0.037,339.6
2019-06-03T05:40:54,42.805,6.029,-0.014,0.042,-0.009,98.0,105.0,98.0,13.3,1505.3,327.9,-0.7,1.8,2470.202,13.33,0.044,341.6
2019-06-03T05:43:55,42.805,6.029,-0.027,0.04,-0.005,98.0,105.0,96.0,13.4,1505.3,323.8,-0.7,1.8,2470.22,13.33,0.048,326.0
2019-06-03T05:46:56,42.805,6.029,0.002,0.026,-0.007,98.0,105.0,96.0,13.4,1505.3,324.1,-0.7,1.8,2470.174,13.33,0.026,4.4
2019-06-03T05:49:57,42.805,6.029,-0.034,0.031,-0.062,97.0,104.0,96.0,13.4,1505.3,323.6,-0.8,1.9,2470.187,13.33,0.046,312.4
2019-06-03T05:52:58,42.805,6.029,-0.024,0.044,-0.019,98.0,103.0,98.0,13.4,1505.3,325.7,-0.7,1.8,2470.182,13.33,0.05,331.4
2019-06-03T05:55:59,42.805,6.029,-0.027,0.022,-0.039,98.0,106.0,95.0,13.4,1505.3,327.9,-0.8,1.8,2470.186,13.33,0.034,309.2
2019-06-03T05:59:00,42.805,6.029,-0.023,0.03,-0.02,98.0,104.0,97.0,13.4,1505.3,323.0,-0.7,1.8,2470.174,13.33,0.037,322.5
2019-06-03T06:02:01,42.805,6.029,-0.016,0.038,-0.025,96.0,103.0,98.0,13.4,1505.3,324.4,-0.7,1.8,2470.182,13.33,0.041,337.2
2019-06-03T06:05:02,42.805,6.029,0.014,0.035,-0.031,99.0,106.0,95.0,13.4,1505.3,327.7,-0.8,1.9,2470.196,13.33,0.037,21.8
2019-06-03T06:08:03,42.805,6.029,-0.003,0.024,-0.02,98.0,105.0,97.0,13.3,1505.3,323.6,-0.8,1.8,2470.188,13.33,0.024,352.9
2019-06-03T06:11:04,42.805,6.029,-0.032,0.015,-0.025,99.0,105.0,97.0,13.4,1505.3,325.2,-0.7,1.8,2470.228,13.33,0.035,295.1
2019-06-03T06:14:05,42.805,6.029,-0.036,0.036,-0.043,98.0,107.0,96.0,13.3,1505.3,323.6,-0.8,1.9,2470.182,13.33,0.05,315.0
2019-06-03T06:17:06,42.805,6.029,-0.023,0.039,0.01,100.0,105.0,96.0,13.4,1505.3,324.2,-0.8,1.9,2470.155,13.33,0.045,329.5
2019-06-03T06:20:07,42.805,6.029,-0.013,0.029,-0.01,99.0,105.0,96.0,13.3,1505.3,322.7,-0.8,1.8,2470.198,13.33,0.031,335.9
2019-06-03T06:23:08,42.805,6.029,-0.007,0.039,-0.025,99.0,106.0,96.0,13.3,1505.3,326.1,-0.7,1.9,2470.184,13.33,0.039,349.8
2019-06-03T06:26:09,42.805,6.029,-0.023,0.048,-0.003,99.0,107.0,97.0,13.3,1505.3,324.5,-0.7,1.8,2470.172,13.33,0.053,334.4
2019-06-03T06:29:10,42.805,6.029,-0.035,0.022,-0.042,98.0,107.0,96.0,13.4,1505.3,323.8,-0.8,1.9,2470.176,13.33,0.041,302.2
2019-06-03T06:32:11,42.805,6.029,0.004,0.039,0.003,98.0,104.0,98.0,13.3,1505.3,324.9,-0.7,1.9,2470.183,13.33,0.039,5.9
2019-06-03T06:35:12,42.805,6.029,-0.013,0.032,-0.023,100.0,105.0,97.0,13.4,1505.3,325.3,-0.7,1.9,2470.179,13.33,0.034,337.9
2019-06-03T06:38:13,42.805,6.029,-0.016,0.007,-0.042,98.0,105.0,96.0,13.4,1505.3,323.0,-0.8,1.8,2470.228,13.33,0.017,293.6
2019-06-03T06:41:14,42.805,6.029,0.003,0.018,-0.005,96.0,105.0,96.0,13.3,1505.3,324.4,-0.8,1.8,2470.2,13.33,0.018,9.5
2019-06-03T06:44:15,42.805,6.029,-0.013,0.043,0.005,98.0,106.0,96.0,13.3,1505.3,323.4,-0.7,1.8,2470.203,13.33,0.044,343.2
2019-06-03T06:47:16,42.805,6.029,-0.019,0.029,-0.032,99.0,105.0,95.0,13.4,1505.3,326.4,-0.7,1.9,2470.181,13.33,0.034,326.8
2019-06-03T06:50:17,42.805,6.029,-0.002,0.028,-0.011,97.0,106.0,96.0,13.4,1505.3,328.0,-0.7,1.8,2470.227,13.33,0.028,355.9
2019-06-03T06:53:18,42.805,6.029,-0.023,0.025,-0.04,98.0,104.0,98.0,13.4,1505.3,326.4,-0.7,1.9,2470.147,13.33,0.033,317.4
2019-06-03T06:56:19,42.805,6.029,0.001,0.035,-0.013,100.0,104.0,96.0,13.4,1505.3,326.1,-0.7,1.8,2470.157,13.33,0.035,1.6
2019-06-03T06:59:20,42.805,6.029,-0.023,0.038,0.018,98.0,103.0,96.0,13.4,1505.3,325.7,-0.7,1.8,2470.187,13.33,0.044,328.8
2019-06-03T07:02:21,42.805,6.029,-0.024,0.032,-0.007,99.0,105.0,96.0,13.4,1505.3,326.9,-0.7,1.9,2470.213,13.33,0.04,323.1
2019-06-03T07:05:22,42.805,6.029,-0.016,0.013,-0.021,99.0,105.0,96.0,13.3,1505.3,324.7,-0.8,1.8,2470.165,13.33,0.02,309.1
2019-06-03T07:08:23,42.805,6.029,0.009,0.046,-0.01,102.0,105.0,96.0,13.4,1505.3,326.8,-0.8,1.8,2470.228,13.33,0.046,11.1
2019-06-03T07:11:24,42.805,6.029,0.012,0.057,-0.006,98.0,105.0,96.0,13.4,1505.3,326.4,-0.7,1.9,2470.199,13.33,0.058,11.9
2019-06-03T07:14:25,42.805,6.029,-0.013,0.029,-0.031,98.0,105.0,96.0,13.4,1505.3,327.6,-0.8,1.9,2470.19,13.33,0.031,335.9
2019-06-03T07:17:26,42.805,6.029,0.001,0.052,0.021,99.0,104.0,96.0,13.4,1505.3,326.1,-0.7,1.9,2470.211,13.33,0.052,1.1
2019-06-03T07:20:27,42.805,6.029,0.004,0.02,-0.031,99.0,104.0,95.0,13.3,1505.3,326.7,-0.7,1.9,2470.201,13.33,0.02,11.3
2019-06-03T07:23:28,42.805,6.029,0.014,0.026,-0.003,96.0,105.0,97.0,13.4,1505.3,326.8,-0.7,1.8,2470.27,13.33,0.029,28.3
2019-06-03T07:26:29,42.805,6.029,-0.012,0.053,-0.009,98.0,104.0,96.0,13.4,1505.3,325.4,-0.7,1.9,2470.193,13.33,0.054,347.2
2019-06-03T07:29:30,42.805,6.029,0.004,0.019,-0.024,100.0,103.0,96.0,13.4,1505.3,326.6,-0.7,1.8,2470.16,13.33,0.019,11.9
2019-06-03T07:32:31,42.805,6.029,0.011,0.034,-0.013,98.0,105.0,96.0,13.3,1505.3,326.5,-0.7,1.9,2470.22,13.33,0.035,17.9
2019-06-03T07:35:32,42.805,6.029,-0.013,0.02,-0.012,98.0,104.0,96.0,13.3,1505.3,326.6,-0.7,1.8,2470.216,13.33,0.023,327.0
2019-06-03T07:38:33,42.805,6.029,-0.017,0.014,-0.038,98.0,103.0,98.0,13.4,1505.3,325.3,-0.7,1.9,2470.137,13.33,0.022,309.5
2019-06-03T07:41:34,42.805,6.029,0.009,0.03,-0.005,99.0,106.0,96.0,13.3,1505.3,327.0,-0.7,1.8,2470.174,13.33,0.031,16.7
2019-06-03T07:44:35,42.805,6.029,0.041,0.029,0.028,98.0,106.0,96.0,13.4,1505.3,327.2,-0.8,1.9,2470.215,13.33,0.05,54.7
2019-06-03T07:47:36,42.805,6.029,0.001,0.025,-0.016,98.0,104.0,96.0,13.4,1505.3,324.7,-0.8,1.8,2470.156,13.33,0.025,2.3
2019-06-03T07:50:37,42.805,6.029,-0.012,0.026,-0.036,100.0,106.0,95.0,13.3,1505.3,324.6,-0.7,1.9,2470.163,13.33,0.028,335.2
2019-06-03T07:53:38,42.805,6.029,-0.014,0.04,-0.006,104.0,104.0,95.0,13.4,1505.3,323.2,-0.7,1.9,2470.157,13.33,0.042,340.7
2019-06-03T07:56:39,42.805,6.029,-0.016,0.036,-0.028,99.0,105.0,96.0,13.4,1505.3,324.3,-0.8,1.9,2470.134,13.33,0.039,336.0
2019-06-03T07:59:40,42.805,6.029,0.003,0.032,-0.008,98.0,104.0,97.0,13.4,1505.3,323.4,-0.8,1.9,2470.152,13.33,0.032,5.4
2019-06-03T08:02:41,42.805,6.029,0.008,0.031,-0.013,99.0,104.0,97.0,13.4,1505.3,323.9,-0.8,1.8,2470.161,13.33,0.032,14.5
2019-06-03T08:05:42,42.805,6.029,-0.015,0.041,-0.017,100.0,103.0,96.0,13.4,1505.3,327.2,-0.8,1.8,2470.201,13.33,0.043,339.9
2019-06-03T08:08:43,42.805,6.029,-0.001,0.055,-0.021,97.0,105.0,96.0,13.4,1505.3,326.3,-0.7,1.8,2470.176,13.33,0.055,359.0
2019-06-03T08:11:44,42.805,6.029,-0.017,0.039,-0.062,98.0,105.0,95.0,13.4,1505.3,327.5,-0.8,1.9,2470.174,13.33,0.042,336.5
2019-06-03T08:14:45,42.805,6.029,0.009,0.045,-0.017,99.0,105.0,96.0,13.4,1505.3,324.3,-0.8,1.9,2470.17,13.33,0.045,11.3
2019-06-03T08:17:46,42.805,6.029,0.003,0.028,-0.009,98.0,105.0,97.0,13.3,1505.3,324.7,-0.8,1.9,2470.211,13.33,0.028,6.1
2019-06-03T08:20:47,42.805,6.029,-0.018,0.023,-0.015,98.0,106.0,97.0,13.3,1505.3,323.3,-0.7,1.8,2470.174,13.33,0.029,322.0
2019-06-03T08:23:48,42.805,6.029,0.0,0.026,-0.017,97.0,106.0,96.0,13.4,1505.3,324.9,-0.7,1.8,2470.186,13.33,0.026,0.0
2019-06-03T08:26:49,42.805,6.029,-0.03,0.027,-0.053,99.0,106.0,97.0,13.4,1505.3,322.9,-0.8,1.8,2470.16,13.33,0.04,312.0
2019-06-03T08:29:50,42.805,6.029,0.002,0.03,-0.023,98.0,107.0,96.0,13.4,1505.3,325.2,-0.7,1.9,2470.169,13.33,0.03,3.8
2019-06-03T08:32:51,42.805,6.029,0.001,0.033,-0.019,98.0,104.0,97.0,13.4,1505.3,327.2,-0.7,1.8,2470.2,13.33,0.033,1.7
2019-06-03T08:35:52,42.805,6.029,-0.035,0.038,-0.03,98.0,104.0,97.0,13.4,1505.3,324.7,-0.7,1.8,2470.166,13.33,0.051,317.4
2019-06-03T08:38:53,42.805,6.029,-0.052,0.026,-0.081,101.0,105.0,96.0,13.4,1505.3,326.4,-0.7,1.9,2470.151,13.33,0.058,296.6
2019-06-03T08:41:54,42.805,6.029,-0.023,0.026,-0.063,98.0,106.0,95.0,13.4,1505.3,327.6,-0.7,1.9,2470.171,13.33,0.034,318.5
2019-06-03T08:44:55,42.805,6.029,-0.011,0.041,-0.026,100.0,105.0,96.0,13.3,1505.3,324.0,-0.7,1.9,2470.152,13.33,0.042,345.0
2019-06-03T08:47:56,42.805,6.029,0.001,0.063,0.001,97.0,105.0,96.0,13.4,1505.3,326.8,-0.7,1.9,2470.149,13.33,0.063,0.9
2019-06-03T08:50:57,42.805,6.029,-0.005,0.034,-0.007,97.0,103.0,96.0,13.3,1505.3,323.6,-0.7,1.8,2470.079,13.33,0.034,351.6
2019-06-03T08:53:58,42.805,6.029,-0.031,0.023,-0.032,98.0,106.0,97.0,13.3,1505.3,324.8,-0.8,1.8,2470.157,13.33,0.038,306.6
2019-06-03T08:56:59,42.805,6.029,-0.054,0.025,-0.081,99.0,106.0,96.0,13.4,1505.3,325.3,-0.7,1.8,2470.148,13.33,0.059,294.8
2019-06-03T09:00:00,42.805,6.029,-0.029,0.031,-0.058,97.0,107.0,95.0,13.4,1505.3,326.7,-0.7,1.8,2470.166,13.33,0.042,316.9
2019-06-03T09:03:01,42.805,6.029,-0.011,0.048,-0.036,98.0,104.0,95.0,13.4,1505.3,324.6,-0.7,1.9,2470.137,13.33,0.049,347.1
2019-06-03T09:06:02,42.805,6.029,-0.047,0.034,-0.05,99.0,104.0,95.0,13.4,1505.3,327.5,-0.8,1.9,2470.149,13.33,0.058,305.9
2019-06-03T09:09:03,42.805,6.029,-0.017,0.042,-0.01,99.0,106.0,96.0,13.4,1505.3,325.6,-0.8,1.8,2470.118,13.33,0.045,338.0
2019-06-03T09:12:04,42.805,6.029,-0.037,0.035,-0.046,98.0,105.0,95.0,13.4,1505.3,325.4,-0.7,1.9,2470.135,13.33,0.05,313.4
2019-06-03T09:15:05,42.805,6.029,-0.036,0.04,-0.046,98.0,106.0,95.0,13.4,1505.3,323.8,-0.8,1.9,2470.115,13.33,0.053,318.0
2019-06-03T09:18:06,42.805,6.029,0.001,0.023,-0.025,98.0,105.0,96.0,13.3,1505.3,326.9,-0.8,1.8,2470.133,13.33,0.023,2.5
2019-06-03T09:21:07,42.805,6.029,0.021,0.036,-0.012,98.0,107.0,96.0,13.3,1505.3,326.6,-0.8,1.9,2470.108,13.33,0.041,30.3
2019-06-03T09:24:08,42.805,6.029,-0.002,0.026,-0.043,100.0,106.0,96.0,13.4,1505.3,325.5,-0.7,1.9,2470.142,13.33,0.026,355.6
2019-06-03T09:27:09,42.805,6.029,0.0,0.019,-0.065,98.0,105.0,96.0,13.4,1505.3,326.1,-0.8,1.8,2470.127,13.33,0.019,0.0
2019-06-03T09:30:10,42.805,6.029,-0.015,0.035,-0.021,100.0,105.0,95.0,13.4,1505.4,326.0,-0.8,1.8,2470.141,13.34,0.038,336.8
2019-06-03T09:33:11,42.805,6.029,-0.009,0.046,-0.027,98.0,106.0,96.0,13.3,1505.4,327.6,-0.8,1.8,2470.112,13.34,0.046,348.9
2019-06-03T09:36:12,42.805,6.029,0.01,0.03,-0.017,96.0,105.0,95.0,13.4,1505.4,326.6,-0.7,1.9,2470.123,13.34,0.031,18.4
2019-06-03T09:39:13,42.805,6.029,0.013,0.001,-0.021,98.0,105.0,96.0,13.3,1505.4,324.7,-0.7,1.8,2470.105,13.34,0.013,85.6
2019-06-03T09:42:14,42.805,6.029,-0.01,0.031,-0.035,99.0,105.0,96.0,13.3,1505.4,323.9,-0.8,1.8,2470.156,13.34,0.032,342.1